Hourly Data Report for July 24, 2017

TORONTO CITY
ONTARIO

43°40'00.000" N
79°24'00.000" W
112.50 m
6158355
71508
XTO

Download Data

Hourly Data (July 2017)
Hourly Data Report for July 24, 2017
TIME
LST
Temp Definition
°C
Dew Point Definition
°C
Rel Hum Definition
%
Precip. Amount Definition
mm

Wind Dir Definition
10's deg

Wind Spd Definition
km/h
Visibility Definition
km
Stn Press Definition
kPa
Hmdx Definition


Wind Chill Definition


Weather Definition


00:00 20.9 13.5 63 0.0 LegendMM LegendMM   99.38     LegendNANA
01:00 20.7 13.4 63 0.0 LegendMM LegendMM   99.33     LegendNANA
02:00 20.4 13.3 63 0.0 LegendMM LegendMM   99.27     LegendNANA
03:00 20.3 12.6 61 0.0 LegendMM LegendMM   99.25     LegendNANA
04:00 20.1 12.0 60 0.0 LegendMM LegendMM   99.27     LegendNANA
05:00 19.9 11.9 60 0.0 LegendMM LegendMM   99.31     LegendNANA
06:00 19.9 12.2 61 0.0 LegendMM LegendMM   99.37     LegendNANA
07:00 20.5 12.8 61 0.0 LegendMM LegendMM   99.41     LegendNANA
08:00 21.2 13.8 62 0.0 LegendMM LegendMM   99.41     LegendNANA
09:00 21.7 15.0 66 0.0 LegendMM LegendMM   99.44 26   LegendNANA
10:00 21.4 14.5 65 0.0 LegendMM LegendMM   99.45 25   LegendNANA
11:00 20.3 15.5 74 0.0 LegendMM LegendMM   99.46 25   LegendNANA
12:00 21.5 16.2 72 0.0 LegendMM LegendMM   99.45 26   LegendNANA
13:00 22.2 15.5 66 0.0 LegendMM LegendMM   99.47 26   LegendNANA
14:00 21.5 15.3 68 0.0 LegendMM LegendMM   99.53 26   LegendNANA
15:00 19.3 15.5 79 0.0 LegendMM LegendMM   99.63     LegendNANA
16:00 19.4 15.1 76 0.0 LegendMM LegendMM   99.68     LegendNANA
17:00 19.3 14.5 74 0.0 LegendMM LegendMM   99.74     LegendNANA
18:00 18.5 13.9 75 0.0 LegendMM LegendMM   99.84     LegendNANA
19:00 18.0 13.3 74 0.0 LegendMM LegendMM   99.93     LegendNANA
20:00 17.8 13.6 76 0.0 LegendMM LegendMM   99.99     LegendNANA
21:00 17.7 13.4 76 0.0 LegendMM LegendMM   100.10     LegendNANA
22:00 17.1 13.8 81 0.0 LegendMM LegendMM   100.16     LegendNANA
23:00 17.0 13.5 80 0.0 LegendMM LegendMM   100.21     LegendNANA

Notes on Data Quality.

Legend

  • E = Estimated
  • M = Missing
  • NA = Not Available*
  • [empty] = Indicates an unobserved value
Date modified: